DO8TBO-15 Weather Reports


Display with metric or nautical units.
time (UTC)temp
F
wind
direction
speed
MPH
gust
MPH
rain 1hr
in
rain 24hr
in
rain mn
in
humidity
%
barometer
mb
20260506162607 67 275 1.0 4.0 0.00 0.33 0.01 1004.5
20260506161603 67 0.0 2.0 0.00 0.34 0.01 1004.6
20260506160559 67 0.0 2.0 0.00 0.34 0.01 1004.7
20260506155555 67 225 0.0 4.0 0.00 0.34 0.01 1004.7
20260506154552 67 210 0.0 4.0 0.00 0.34 0.01 1004.7
20260506153547 67 236 2.0 5.0 0.00 0.34 0.01 1004.8
20260506152544 68 228 2.0 5.0 0.00 0.34 0.01 1004.7
20260506151541 68 270 0.0 3.0 0.00 0.34 0.01 1004.6
20260506150536 68 0.0 3.0 0.00 0.34 0.01 1004.5
20260506145532 68 242 1.0 5.0 0.00 0.34 0.01 1004.6
20260506143525 69 237 0.0 3.0 0.00 0.34 0.01 1004.6
20260506142521 69 221 1.0 4.0 0.00 0.34 0.01 1004.7
20260506141518 70 179 1.0 4.0 0.00 0.34 0.01 1004.7
20260506140615 70 0.0 1.0 0.00 0.34 0.01 1004.8
20260506135610 69 175 2.0 4.0 0.00 0.34 0.01 1004.8
20260506134606 69 150 1.0 4.0 0.00 0.34 0.01 1004.9
20260506133603 69 176 1.0 4.0 0.00 0.34 0.01 1004.8
20260506132559 69 135 0.0 4.0 0.00 0.34 0.01 1004.9
20260506131555 69 171 2.0 4.0 0.00 0.34 0.01 1004.9
20260506130551 69 180 2.0 5.0 0.00 0.34 0.01 1005.0
20260506125548 70 185 2.0 7.0 0.00 0.34 0.01 1004.9
20260506124544 69 229 1.0 7.0 0.00 0.34 0.01 1005.1
20260506123540 69 259 1.0 5.0 0.00 0.34 0.01 1005.1
20260506122536 70 230 1.0 5.0 0.00 0.34 0.01 1005.1
20260506121533 71 170 1.0 5.0 0.00 0.34 0.01 1005.3
20260506120528 69 270 2.0 3.0 0.00 0.34 0.01 1005.4
20260506115525 69 225 0.0 4.0 0.00 0.34 0.01 1005.4
20260506114521 69 193 2.0 4.0 0.00 0.34 0.01 1005.3
20260506113518 68 190 2.0 6.0 0.00 0.34 0.01 1005.4
20260506112614 67 225 1.0 4.0 0.00 0.34 0.01 1005.5
20260506111610 68 232 3.0 7.0 0.00 0.34 0.01 1005.5
20260506110607 68 225 2.0 4.0 0.00 0.34 0.01 1005.5
20260506105603 69 180 2.0 5.0 0.00 0.34 0.01 1005.5
20260506104559 68 204 3.0 9.0 0.00 0.34 0.01 1005.5
20260506103556 68 204 3.0 6.0 0.00 0.34 0.01 1005.6
20260506102551 68 209 2.0 7.0 0.00 0.34 0.01 1005.7
20260506101547 67 226 2.0 7.0 0.00 0.34 0.01 1005.8
20260506100544 65 180 2.0 4.0 0.00 0.34 0.01 1005.7
20260506095540 66 216 2.0 5.0 0.00 0.34 0.01 1005.8
20260506094537 67 219 2.0 6.0 0.00 0.34 0.01 1005.9
20260506093533 67 182 2.0 6.0 0.00 0.34 0.01 1005.9
20260506092559 66 163 3.0 8.0 0.00 0.34 0.01 1006.0
20260506091556 65 220 2.0 7.0 0.00 0.34 0.01 1005.8
20260506090552 64 0 2.0 4.0 0.00 0.34 0.01 1006.0
20260506085548 64 210 2.0 6.0 0.00 0.34 0.01 1006.0
20260506084544 63 238 2.0 6.0 0.00 0.34 0.01 1005.9
20260506083540 61 193 1.0 8.0 0.00 0.34 0.01 1005.6
20260506082536 63 250 2.0 9.0 0.00 0.34 0.01 1005.6
20260506081533 62 205 1.0 4.0 0.00 0.34 0.01 1005.6
20260506080529 61 225 2.0 4.0 0.00 0.34 0.01 1005.6
20260506073517 61 239 1.0 4.0 0.00 0.34 0.01 1005.4
20260506072614 60 224 0.0 4.0 0.00 0.34 0.01 1005.5
20260506071611 61 158 3.0 7.0 0.00 0.34 0.01 1005.5
20260506070607 59 135 2.0 5.0 0.00 0.34 0.01 38 1005.5
20260506061548 55 139 1.0 5.0 0.00 0.34 0.01 74 1005.7
20260506060545 55 180 3.0 6.0 0.00 0.34 0.01 80 1005.8
20260506050553 54 184 1.0 4.0 0.00 0.34 0.01 84 1005.9
20260506044545 54 195 0.0 3.0 0.00 0.34 0.01 84 1005.8
20260506043542 54 0.0 1.0 0.00 0.34 0.01 84 1005.8
20260506042538 54 0.0 0.0 0.00 0.34 0.01 86 1005.6
20260506041534 54 0.0 1.0 0.00 0.34 0.01 84 1005.7
20260506040600 54 215 1.0 5.0 0.00 0.34 0.01 85 1005.5
20260506035556 54 166 1.0 5.0 0.00 0.34 0.01 87 1005.6
20260506034553 55 0.0 2.0 0.00 0.34 0.01 88 1005.5
20260506033548 55 0.0 2.0 0.00 0.34 0.01 85 1005.4
20260506032544 55 0.0 3.0 0.00 0.35 0.01 85 1005.5
20260506031541 55 0.0 2.0 0.00 0.35 0.01 84 1005.5
20260506030538 54 225 0.0 4.0 0.00 0.35 0.01 82 1005.5
20260506025538 55 225 1.0 4.0 0.00 0.35 0.01 81 1005.6
20260506024600 55 0.0 3.0 0.01 0.35 0.01 83 1005.6
20260506023556 55 0.0 0.0 0.01 0.35 0.01 81 1005.6
20260506022552 55 0.0 0.0 0.01 0.35 0.01 81 1005.6
20260506021548 55 0.0 0.0 0.01 0.35 0.01 80 1005.6
20260506020545 55 0.0 0.0 0.01 0.35 0.01 80 1005.6
20260506015541 55 0.0 0.0 0.01 0.35 0.01 79 1005.6
20260506014537 55 0.0 0.0 0.00 0.34 0.00 77 1005.6
20260506013533 55 0.0 0.0 0.00 0.35 0.00 76 1005.8
20260506012600 55 0.0 0.0 0.00 0.35 0.00 74 1005.9
20260506011556 55 180 0.0 3.0 0.00 0.35 0.00 73 1005.8
20260506010552 55 0.0 0.0 0.00 0.35 0.00 70 1005.9
20260506005549 55 180 1.0 4.0 0.00 0.35 0.00 69 1006.0
20260506004545 55 0.0 0.0 0.00 0.35 0.00 67 1006.1
20260506003542 55 0.0 0.0 0.00 0.35 0.00 66 1006.1
20260506002537 55 0.0 1.0 0.00 0.35 0.00 64 1006.3
20260506001533 55 0.0 0.0 0.00 0.35 0.00 63 1006.2
20260506000600 55 0.0 0.0 0.00 0.35 0.00 61 1006.4
20260505235556 55 0.0 0.0 0.00 0.35 0.00 59 1006.4
20260505234552 55 0.0 0.0 0.00 0.35 0.00 56 1006.4
20260505233549 55 0.0 0.0 0.00 0.35 0.00 54 1006.5
20260505232544 55 180 0.0 3.0 0.00 0.35 0.00 49 1006.5
20260505231540 55 180 0.0 2.0 0.00 0.35 0.00 45 1006.4
20260505230537 55 180 2.0 4.0 0.00 0.35 0.00 40 1006.4
20260505225533 55 187 1.0 3.0 0.00 0.35 0.00 34 1006.4
20260505224529 55 0.0 2.0 0.00 0.35 0.00 28 1006.3
20260505223526 55 0.0 1.0 0.01 0.35 0.00 25 1006.3
20260505222522 55 0.0 0.0 0.01 0.35 0.00 25 1006.3
20260505221519 55 0.0 0.0 0.01 0.35 0.00 25 1006.3
20260505220615 55 0.0 0.0 0.01 0.35 0.00 24 1006.3
20260505215611 55 0.0 0.0 0.01 0.35 0.35 24 1006.3
20260505214607 55 0.0 1.0 0.01 0.35 0.35 21 1006.4
20260505213604 55 0.0 0.0 0.00 0.34 0.34 15 1006.6
20260505212600 55 0.0 0.0 0.00 0.34 0.34 11 1006.7
20260505211556 55 0.0 0.0 0.00 0.34 0.34 1006.7
20260505210551 55 0.0 0.0 0.00 0.34 0.34 1006.7
20260505205548 55 0.0 0.0 0.00 0.34 0.34 1006.5
20260505204544 55 0.0 0.0 0.01 0.34 0.34 1006.4
20260505203542 56 0.0 0.0 0.01 0.34 0.34 1006.3
20260505202537 56 0.0 0.0 0.01 0.34 0.34 1006.3
20260505201532 56 0.0 0.0 0.01 0.34 0.34 1006.3
20260505200529 56 0.0 0.0 0.01 0.34 0.34 1006.4
20260505195525 56 0.0 0.0 0.01 0.34 0.34 1006.4
20260505194521 56 0.0 0.0 0.00 0.33 0.33 1006.4
20260505193518 56 0.0 0.0 0.00 0.33 0.33 1006.4
20260505192614 56 0.0 0.0 0.00 0.33 0.33 1006.4
20260505191610 56 0.0 0.0 0.01 0.33 0.33 1006.4
20260505190606 56 0.0 0.0 0.01 0.33 0.33 1006.3
20260505185602 56 0.0 0.0 0.01 0.33 0.33 1006.3
20260505184559 56 0.0 0.0 0.01 0.33 0.33 1006.3
20260505183555 56 0.0 1.0 0.02 0.33 0.33 1006.2
20260505182551 56 0.0 2.0 0.04 0.33 0.33 1006.0
20260505181547 56 0.0 0.0 0.05 0.32 0.32 1006.0
20260505180544 56 0.0 0.0 0.13 0.32 0.32 1006.0
20260505175540 56 0.0 0.0 0.18 0.32 0.32 1005.8
20260505174537 56 1 2.0 4.0 0.27 0.32 0.32 1005.6
20260505173533 56 0 1.0 4.0 0.27 0.31 0.31 1005.8
20260505172558 57 313 1.0 5.0 0.26 0.30 0.30 1006.0
20260505171555 57 228 4.0 9.0 0.25 0.27 0.27 1006.1
20260505170551 58 180 5.0 11.0 0.17 0.19 0.19 1006.0
20260505165548 59 257 5.0 9.0 0.12 0.14 0.14 1005.7
20260505164543 60 237 3.0 9.0 0.02 0.05 0.05 1005.6